Location: Whispering Pines Observatory
(39.4020°N, 104.7430°W)
Time: 15:26:33
(UTC-06:00)

MOS 1 Rocket - Visible Passes

Search period start: 27 May 2018 00:00
Search period end: 06 June 2018 00:00
Orbit: 615 x 830 km, 97.5° (Epoch: 27 May)

Date Brightness Start Highest point End Pass type
(mag) Time Alt. Az. Time Alt. Az. Time Alt. Az.
27 May 3.9 01:26:01 10° NNE 01:31:05 61° E 01:31:05 61° E visible
27 May 5.4 03:05:34 10° NNW 03:09:03 18° WNW 03:10:24 16° W visible
28 May 5.3 00:37:55 10° NE 00:41:30 22° E 00:41:30 22° E visible
28 May 4.1 02:15:17 10° N 02:20:29 46° WNW 02:20:49 45° W visible
29 May 3.8 01:26:05 10° NNE 01:31:13 63° E 01:31:13 63° E visible
29 May 5.4 03:05:41 10° NNW 03:09:07 17° WNW 03:10:32 16° W visible
30 May 5.3 00:37:58 10° NE 00:41:37 22° E 00:41:37 22° E visible
30 May 4.1 02:15:23 10° N 02:20:32 45° WNW 02:20:56 44° W visible
31 May 3.8 01:26:10 10° NNE 01:31:20 64° E 01:31:20 64° E visible
31 May 5.5 03:05:49 10° NNW 03:09:10 17° WNW 03:10:39 15° W visible
01 Jun 5.2 00:38:02 10° NE 00:41:44 22° E 00:41:44 22° E visible
01 Jun 4.2 02:15:28 10° N 02:20:36 44° WNW 02:21:03 43° W visible
02 Jun 3.7 01:26:15 10° NNE 01:31:27 65° E 01:31:27 65° E visible
02 Jun 5.5 03:05:58 10° NNW 03:09:12 16° WNW 03:10:46 15° W visible
03 Jun 5.2 00:38:06 10° NE 00:41:50 22° E 00:41:50 22° E visible
03 Jun 4.2 02:15:34 10° N 02:20:39 43° WNW 02:21:09 42° W visible
04 Jun 3.7 01:26:20 10° NNE 01:31:32 67° E 01:31:32 67° E visible
04 Jun 5.5 03:06:07 10° NNW 03:09:15 16° WNW 03:10:51 14° W visible
05 Jun 5.2 00:38:10 10° NE 00:41:55 23° E 00:41:55 23° E visible
05 Jun 4.2 02:15:41 10° N 02:20:43 42° WNW 02:21:14 41° W visible
